GFSFLT2_sfc_30mbdewp_000.txt.gz
Dewpoint
20 21 22 23 24 24 25 27 26 22 21 22 22 23 25 24 22 22 23 25 26 28 27 28 28 30 30
23 25 25 25 26 29 26 23 21 20 20 21 20 20 20 20 22 22 29 30 27 26 27 29 31 32 33
21 22 22 28 24 20 18 17 16 17 19 20 21 21 23 25 31 25 21 23 23 24 25 26 26 27 29
25 24 28 23 19 16 15 17 17 20 22 23 23 23 23 21 21 21 23 23 24 25 25 26 30 32 32
22 24 23 17 16 17 17 17 20 26 20 19 21 21 20 21 21 22 23 24 25 30 28 27 28 31 33
26 22 18 17 18 18 20 23 16 18 18 19 20 20 21 22 22 22 21 21 25 23 26 28 28 32 29
20 19 19 20 25 22 20 20 20 20 20 20 20 19 20 19 20 21 21 22 23 27 29 28 28 29 28
18 22 25 20 17 18 23 23 22 20 18 18 18 17 18 19 21 22 22 23 25 29 32 34 34 35 34
23 18 17 17 19 23 21 19 16 16 16 17 18 19 19 19 20 22 23 23 23 26 30 30 30 31 30
15 15 16 17 19 20 23 18 17 16 15 18 19 20 19 19 21 21 22 23 24 26 27 30 32 32 31
16 17 18 18 18 20 23 22 19 18 19 22 21 21 20 19 19 19 19 22 22 23 27 30 32 32 31
17 17 17 19 20 21 22 23 23 23 24 24 22 22 21 20 17 17 17 19 22 25 27 29 31 32 34
18 18 19 20 21 21 22 22 23 24 26 26 24 23 22 20 19 18 18 19 23 27 28 29 30 31 30
19 19 18 18 19 21 21 20 21 20 22 25 25 24 21 20 19 18 19 20 24 28 30 31 32 33 33
19 18 18 18 19 19 21 21 19 20 21 22 23 24 22 19 18 20 21 23 28 30 31 31 32 33 34
18 18 18 18 18 20 20 20 20 21 21 22 22 21 19 20 23 20 26 26 28 31 31 30 29 31 33
17 19 19 17 18 18 19 20 19 22 21 22 21 20 17 17 22 28 27 29 29 29 31 31 30 31 32

GFSFLT2_sfc_30mbdewp_003.txt.gz
Dewpoint
23 24 25 24 24 24 26 30 27 23 21 19 19 20 22 24 26 28 27 29 26 26 26 29 30 32 33
23 20 20 21 23 28 27 22 19 18 18 18 20 21 23 25 25 26 26 29 32 35 33 31 31 31 31
20 21 23 25 24 25 19 17 17 17 18 20 21 23 22 22 23 25 28 25 24 26 27 27 27 26 28
25 26 22 26 25 18 15 17 17 18 20 24 20 19 20 21 21 20 21 21 22 23 24 25 25 27 26
22 25 21 17 16 17 18 19 22 24 18 17 18 19 20 20 20 20 21 22 24 26 27 27 28 30 31
24 19 17 17 18 20 22 19 16 18 18 19 19 19 20 20 21 21 21 22 23 24 25 26 27 31 28
17 17 17 20 25 22 21 21 20 20 21 19 18 18 19 19 20 21 22 22 23 25 28 28 28 28 27
17 21 23 19 18 19 22 23 22 19 17 17 17 17 18 19 20 22 23 23 23 25 25 26 30 33 33
22 19 17 18 19 22 21 19 16 15 16 17 17 18 18 19 20 22 22 21 21 22 23 24 27 27 29
15 16 17 18 19 19 22 18 17 16 15 18 19 20 18 18 19 19 20 21 21 22 22 27 28 31 31
16 17 18 17 18 20 22 22 19 18 18 21 21 20 19 19 19 18 18 19 20 20 22 26 29 31 30
18 17 17 18 19 20 22 23 24 22 23 24 21 21 20 19 17 17 18 20 21 21 22 25 29 31 32
17 17 18 19 20 20 21 21 21 22 24 25 24 23 22 20 19 19 20 20 21 23 26 27 28 29 27
17 17 17 17 18 19 20 19 20 19 21 23 26 25 21 21 21 19 21 20 23 24 28 31 32 32 31
17 17 17 17 18 18 19 20 18 19 20 22 23 23 23 23 20 22 23 24 28 30 31 30 32 32 32
17 16 16 17 17 18 18 19 19 19 21 22 22 21 20 22 25 22 25 28 31 31 31 30 30 32 33
16 17 18 16 17 17 18 18 18 21 22 22 22 20 18 19 23 29 26 30 30 30 31 30 30 30 33

GFSFLT2_sfc_30mbdewp_006.txt.gz
Dewpoint
21 23 23 20 20 22 23 24 26 31 24 20 20 20 21 22 23 25 29 28 29 30 30 31 31 33 33
24 21 20 21 23 25 24 27 27 20 19 19 20 20 21 24 27 26 27 26 27 27 29 32 32 32 32
20 21 22 25 23 25 24 22 18 17 18 19 20 21 23 24 22 23 25 26 28 27 29 28 28 28 30
21 23 25 26 22 17 15 17 18 19 21 21 20 20 20 20 20 20 21 21 21 22 24 25 25 26 26
25 24 19 16 15 16 17 19 20 19 17 18 18 19 19 20 20 20 20 21 23 25 26 28 29 28 26
20 17 15 16 16 20 23 19 17 19 19 21 20 19 19 18 19 20 21 22 23 23 25 26 27 27 27
16 16 16 20 25 22 21 21 19 20 21 20 18 17 17 17 18 20 21 22 23 25 27 26 26 26 28
18 21 24 20 18 19 22 23 22 18 17 17 17 16 17 17 19 20 21 22 23 26 26 27 28 30 30
24 20 18 19 20 22 21 19 16 15 16 16 16 16 17 18 19 20 20 20 20 22 23 24 25 25 25
15 16 17 18 19 18 20 18 17 16 14 18 18 19 17 16 17 18 19 20 21 22 24 24 25 26 28
16 16 17 17 17 19 20 20 18 17 18 21 20 19 19 18 18 18 18 19 21 22 23 25 28 30 29
16 17 16 17 18 19 20 21 22 22 23 23 21 20 19 18 17 18 19 22 23 24 24 25 27 30 31
17 16 17 18 18 18 19 20 20 21 22 22 23 23 22 20 20 20 22 22 23 24 25 26 26 27 26
17 16 16 16 17 17 19 18 19 18 20 21 23 25 22 22 22 21 23 22 25 26 28 29 31 32 31
17 16 16 16 16 17 19 19 17 17 19 21 23 24 24 24 22 24 25 26 30 31 31 30 31 33 32
16 16 16 16 17 17 17 18 17 18 20 22 22 22 21 22 26 24 27 27 30 31 31 30 29 31 32
16 16 17 16 16 16 16 17 17 19 21 21 22 22 19 19 22 25 27 29 29 29 30 30 29 30 34

GFSFLT2_sfc_30mbdewp_009.txt.gz
Dewpoint
20 21 20 20 19 20 22 23 24 24 23 23 23 21 22 24 25 25 25 27 27 29 31 32 33 34 34
21 21 19 20 21 23 25 22 20 20 20 20 21 21 22 23 25 27 27 29 28 27 29 29 30 30 31
20 20 21 24 25 21 18 15 15 17 19 20 21 22 23 23 23 24 24 25 25 25 27 29 29 30 31
23 25 21 20 19 16 15 17 17 19 20 20 21 20 20 21 21 21 21 22 22 23 24 25 26 26 26
23 20 18 15 15 16 18 20 20 19 19 19 19 19 20 21 20 20 20 21 22 23 25 26 27 27 27
21 16 14 15 17 21 21 20 18 18 17 19 20 19 19 19 19 20 21 22 22 23 24 26 26 25 27
16 15 16 20 25 23 21 20 19 20 20 19 18 18 18 17 18 20 21 22 23 25 27 27 26 26 27
17 21 25 22 20 20 22 23 21 19 17 17 17 17 17 18 19 20 21 22 23 24 25 25 26 28 29
24 22 19 20 20 21 21 19 17 15 16 16 16 17 18 19 20 19 20 21 23 24 24 25 24 25 25
16 15 16 17 19 18 20 18 18 16 14 18 19 19 17 14 16 19 20 21 22 24 26 27 27 27 29
14 15 16 16 16 18 19 21 18 18 18 21 21 20 20 20 19 19 20 23 26 26 26 28 31 31 30
15 16 17 18 19 20 20 21 21 21 23 24 21 21 20 19 19 20 21 25 26 26 27 27 28 30 32
16 17 18 19 20 20 20 20 21 21 22 22 23 23 23 22 22 22 23 25 26 27 29 29 29 29 28
16 16 16 17 18 19 19 19 19 19 20 22 25 26 24 24 24 23 24 24 28 30 31 31 32 33 31
16 16 15 16 17 18 19 19 17 18 19 21 24 25 25 25 24 24 25 26 29 30 30 30 30 33 33
16 16 16 17 17 18 18 18 18 18 19 22 23 23 23 23 24 25 27 27 28 30 31 29 28 30 32
16 16 17 18 16 16 17 17 17 18 21 23 23 22 20 20 23 25 27 27 29 27 30 30 29 30 33

GFSFLT2_sfc_30mbdewp_012.txt.gz
Dewpoint
16 17 18 18 18 19 20 21 22 21 20 20 21 22 24 25 26 27 27 27 27 28 28 30 30 32 35
18 18 18 20 21 20 19 16 15 15 18 20 22 23 23 24 25 26 27 28 29 30 28 29 30 30 32
19 20 22 23 21 19 15 14 15 17 18 19 21 22 23 24 24 24 25 25 26 27 26 27 27 27 27
22 26 23 21 18 14 14 16 17 19 19 20 21 21 22 21 22 22 23 23 24 25 25 26 27 27 27
28 23 21 16 12 15 17 20 20 20 19 20 18 19 21 21 21 21 21 22 23 24 26 27 27 26 27
24 19 14 13 15 18 22 21 19 19 18 20 20 20 20 20 19 20 21 22 23 24 25 27 27 27 27
19 14 14 17 23 26 22 21 20 20 21 20 19 18 19 18 19 20 22 23 25 26 27 27 27 27 28
16 17 22 25 23 20 22 22 22 20 18 18 18 17 18 19 20 21 23 24 25 26 27 27 27 26 27
21 24 22 19 20 21 22 21 19 17 17 17 16 18 19 20 20 18 20 24 27 30 31 30 29 28 28
18 15 16 16 18 18 21 21 20 18 16 19 20 19 18 16 17 21 22 22 24 27 30 31 31 31 32
14 15 15 16 17 20 22 23 21 20 19 21 21 20 21 21 20 21 22 23 25 27 28 29 30 33 31
15 15 17 20 21 22 22 23 23 23 24 24 22 22 21 20 20 21 23 25 27 29 31 31 31 31 31
16 18 19 20 21 22 23 23 23 23 24 24 24 24 24 22 22 24 25 26 28 29 31 32 32 32 31
17 17 17 19 19 21 21 21 21 21 23 24 25 26 24 25 25 23 26 26 28 29 31 31 32 33 33
18 17 17 18 19 20 20 21 20 20 21 23 24 26 27 26 25 25 26 26 28 29 30 30 30 32 33
18 19 19 19 19 20 20 20 20 20 20 22 24 24 24 25 26 26 26 26 28 29 31 29 28 30 33
19 19 20 20 18 19 19 20 20 21 22 24 24 24 22 20 22 25 25 27 28 29 28 30 29 30 32

GFSFLT2_sfc_30mbdewp_015.txt.gz
Dewpoint
18 19 19 19 19 21 23 22 21 20 19 20 21 23 24 25 26 28 28 28 28 30 30 32 31 31 31
20 20 20 19 21 24 23 19 18 16 18 20 22 23 24 24 25 26 27 27 28 29 31 31 32 31 32
19 20 21 24 27 22 19 18 16 17 18 20 21 22 24 24 24 24 25 25 26 27 29 29 28 29 31
21 23 25 28 21 18 15 17 18 19 21 21 21 22 22 22 22 23 24 24 24 25 26 28 28 27 29
24 26 23 19 17 16 17 19 20 24 20 20 20 20 21 22 21 21 22 23 24 25 27 28 28 29 28
28 22 21 18 16 19 21 23 21 20 20 20 21 21 21 21 21 21 22 23 24 26 27 28 28 27 27
20 18 17 17 21 22 24 22 20 20 20 21 22 20 20 19 20 22 23 24 26 27 27 28 29 29 29
17 18 20 24 29 28 22 22 21 21 21 20 20 18 19 20 21 22 24 24 24 25 27 30 33 33 31
18 22 23 21 20 20 21 21 20 19 20 19 19 20 20 20 20 20 21 22 25 26 27 28 29 33 35
22 19 17 17 18 19 21 23 21 19 18 20 21 21 19 17 18 20 22 22 24 25 27 27 29 33 34
17 16 16 17 19 21 22 24 22 20 20 22 22 21 21 20 19 20 21 22 24 25 27 28 29 32 33
16 16 17 20 21 22 22 23 24 24 25 24 22 22 21 20 19 19 20 22 25 27 28 29 30 31 33
18 19 20 20 21 21 22 23 23 23 24 24 24 24 24 22 21 22 22 23 26 27 29 32 32 32 31
19 19 19 19 19 20 21 21 22 21 22 23 25 25 24 24 24 23 24 23 26 28 28 29 30 31 31
21 20 18 19 20 20 20 22 21 19 20 22 23 24 25 26 25 24 24 25 27 27 27 28 29 30 31
20 20 20 20 19 21 21 20 20 20 21 22 23 24 23 23 25 24 24 24 25 26 27 28 28 28 29
21 20 20 21 19 19 20 20 20 20 20 22 24 23 21 19 21 24 26 26 26 27 27 28 28 28 30

GFSFLT2_sfc_30mbdewp_018.txt.gz
Dewpoint
18 20 21 21 21 20 20 25 24 23 21 22 21 23 24 26 27 27 28 29 31 31 32 33 34 33 33
21 21 21 21 21 24 27 25 21 20 20 20 22 23 24 25 26 27 28 29 29 30 31 31 30 31 32
21 21 21 23 25 29 23 19 19 17 19 20 21 24 24 24 25 25 25 26 26 26 28 28 29 30 30
22 24 24 25 26 21 19 17 18 20 20 23 24 22 23 23 23 24 24 25 25 25 26 27 28 28 29
23 23 26 21 20 20 17 18 19 21 23 21 21 21 21 22 23 23 23 25 25 26 27 28 28 29 29
27 22 20 20 18 18 19 20 20 23 20 20 20 20 21 23 22 23 23 24 25 26 27 28 29 30 31
21 20 17 18 20 21 23 25 23 21 21 20 21 21 21 20 21 23 24 25 26 27 27 28 29 30 31
19 18 20 21 25 27 24 22 21 21 21 21 21 19 20 21 22 22 24 25 25 25 26 27 29 29 30
19 22 23 21 20 20 20 20 19 19 20 20 20 20 20 20 20 21 21 22 23 25 26 27 28 29 30
22 20 19 18 18 18 21 21 20 19 18 21 21 21 18 17 18 19 20 21 22 23 25 26 27 29 30
17 17 17 17 18 20 21 22 21 20 20 22 22 21 21 19 19 19 19 20 21 22 23 26 28 29 31
16 17 18 20 20 21 21 21 22 23 24 25 23 22 21 19 18 18 19 21 23 24 25 27 28 29 29
20 20 19 20 21 21 21 21 22 23 23 23 23 23 23 21 20 21 21 22 24 25 26 26 27 29 28
19 20 20 20 19 20 21 20 20 20 21 22 23 23 23 23 23 22 22 22 24 25 26 28 27 28 28
20 20 19 19 19 19 20 21 20 19 19 20 22 23 23 23 22 23 23 24 25 26 25 26 26 27 28
20 19 19 19 19 20 20 19 19 19 19 20 20 21 21 22 24 23 25 25 25 26 25 25 25 26 27
19 19 19 20 19 18 19 19 19 19 19 20 22 22 19 18 20 24 25 26 26 25 26 26 26 27 28

GFSFLT2_sfc_30mbdewp_021.txt.gz
Dewpoint
19 21 21 21 22 22 22 23 26 26 23 23 23 23 24 25 26 26 27 28 31 31 33 33 33 34 34
22 22 22 22 22 23 24 26 26 22 21 21 22 23 24 25 27 26 27 27 30 31 30 30 30 32 33
22 23 22 24 25 26 28 23 21 20 19 20 22 24 26 26 25 26 26 26 27 27 27 29 30 30 31
23 23 23 24 26 22 21 21 18 18 19 22 24 24 23 23 24 24 25 25 26 26 27 29 30 31 31
23 23 24 21 19 20 19 18 19 21 21 22 23 21 21 22 22 23 25 26 26 26 27 29 30 31 32
25 22 21 20 19 18 19 20 20 23 22 22 21 21 21 22 23 24 24 25 26 27 28 28 29 30 30
23 21 20 19 20 21 24 25 23 22 21 20 21 20 21 21 22 23 24 25 26 26 27 28 29 30 30
22 21 20 22 26 24 21 21 21 20 20 19 20 19 20 21 22 22 24 24 25 24 25 26 27 28 29
21 23 24 21 21 20 19 19 18 18 19 19 19 20 20 20 20 21 21 22 22 24 25 26 26 27 28
22 20 18 19 19 19 19 19 19 18 17 20 20 20 18 17 18 19 20 21 22 23 23 24 25 26 27
16 16 17 18 19 20 21 21 20 19 19 21 21 20 21 20 19 19 19 20 20 21 22 24 25 27 27
16 18 19 20 20 21 21 22 22 21 21 22 21 21 20 18 17 18 19 20 22 23 24 25 26 27 28
18 18 19 20 21 21 21 21 21 22 22 22 22 22 21 19 19 19 20 21 22 23 24 25 25 26 26
18 19 19 19 19 19 20 20 20 19 20 21 22 22 21 21 21 20 21 21 22 23 24 25 26 27 28
19 18 18 18 19 19 19 19 19 18 18 19 21 22 22 22 20 20 21 21 22 23 25 25 25 26 26
18 18 18 18 18 19 20 19 18 18 18 19 20 20 20 21 23 22 23 24 24 25 25 25 25 25 26
18 17 17 18 18 18 18 18 18 18 18 20 22 22 19 17 19 23 26 26 26 25 25 25 26 27 27

GFSFLT2_sfc_30mbdewp_024.txt.gz
Dewpoint
19 21 22 22 23 23 23 23 24 25 26 25 25 25 25 26 26 27 27 29 31 31 32 33 33 33 34
21 22 23 23 23 23 24 25 25 26 25 24 23 24 25 26 27 27 27 27 27 28 29 29 30 30 31
22 23 23 23 24 24 26 25 24 23 21 21 22 24 26 27 26 26 26 26 27 27 27 27 28 30 31
23 23 23 24 25 24 20 20 19 19 20 22 24 25 25 24 25 25 25 25 26 27 27 28 30 31 32
23 23 24 21 21 20 20 19 19 22 22 22 23 24 23 23 23 23 24 26 26 27 27 28 29 30 32
23 23 22 21 20 20 19 20 20 22 22 21 22 21 21 22 23 24 25 25 26 26 27 28 29 30 30
23 22 22 22 21 21 23 24 22 22 21 19 20 19 20 21 22 23 24 25 26 27 26 27 28 30 32
24 23 22 23 26 25 21 21 21 20 19 18 18 18 19 20 21 23 24 25 26 26 25 25 26 26 26
22 23 24 23 21 21 20 20 17 17 18 18 18 18 19 19 20 22 22 23 23 23 25 25 26 26 26
19 17 18 18 20 20 19 19 18 17 17 18 19 19 17 18 18 19 19 21 22 23 24 24 25 25 25
16 16 17 18 20 21 21 21 19 18 19 21 20 19 19 18 19 19 19 19 20 20 21 23 24 25 26
16 17 18 19 20 20 21 21 22 21 22 22 19 19 18 17 16 17 18 19 20 21 22 24 25 26 26
18 18 19 19 20 20 21 21 21 21 22 23 22 21 20 18 17 18 19 19 21 21 22 23 24 24 25
18 18 18 18 18 19 19 19 19 18 20 21 22 22 20 20 20 19 19 19 21 22 22 23 24 25 26
18 18 17 17 18 18 18 18 18 17 17 18 20 21 21 21 19 19 19 20 21 22 22 23 24 25 26
18 17 17 17 17 18 19 18 17 17 18 18 19 20 20 20 23 21 21 21 22 23 25 25 24 25 26
17 17 17 17 18 16 17 17 17 17 17 19 21 21 18 16 19 22 25 27 26 25 25 25 25 25 26

GFSFLT2_sfc_30mbdewp_027.txt.gz
Dewpoint
18 19 20 22 23 24 24 24 24 25 26 27 27 27 27 27 27 27 27 29 31 32 33 33 33 33 33
19 21 22 23 24 23 24 24 25 25 26 26 25 25 26 26 27 28 29 30 29 28 28 29 29 31 31
21 23 23 24 23 24 25 25 24 22 22 22 23 25 26 26 26 26 27 27 27 27 28 28 28 28 29
22 22 23 24 24 23 20 20 20 20 21 23 25 25 24 25 26 26 26 26 27 27 28 27 27 29 30
22 22 23 23 22 21 21 21 21 22 22 22 23 23 23 23 23 23 24 26 27 28 27 28 28 30 30
22 23 23 22 21 21 21 21 20 22 22 21 22 20 20 21 22 24 26 26 27 27 26 28 28 30 30
23 22 22 22 22 22 23 23 22 21 21 20 19 19 20 20 22 23 24 25 26 27 26 27 26 28 29
23 23 24 23 25 26 24 21 21 21 20 17 18 18 19 19 21 23 24 25 26 26 27 26 26 27 27
22 23 24 23 21 21 20 20 18 17 18 18 18 18 18 18 19 21 23 24 24 24 24 25 25 26 26
20 17 17 17 20 20 19 19 18 17 17 18 19 20 17 18 18 19 19 20 22 23 24 25 25 25 25
15 16 17 18 19 20 21 20 19 18 19 21 21 19 19 18 18 18 18 18 19 20 21 22 23 25 25
16 17 18 19 19 20 20 21 21 21 21 22 19 19 18 16 16 16 17 18 19 20 21 22 24 25 26
18 18 18 19 19 19 20 20 21 21 22 22 22 21 21 18 17 18 19 19 20 20 21 22 22 23 23
17 18 18 18 18 19 18 18 18 17 19 20 21 21 20 20 20 18 18 19 20 21 21 22 23 23 24
17 17 17 17 17 17 17 18 17 17 17 18 20 21 21 21 19 19 19 20 21 21 21 21 22 23 24
16 16 16 16 16 17 18 17 16 16 17 18 18 19 19 20 22 21 21 21 22 23 24 23 23 24 26
16 15 16 16 17 16 16 17 16 17 17 18 20 21 17 15 18 21 24 26 26 26 25 25 24 25 25

GFSFLT2_sfc_30mbdewp_030.txt.gz
Dewpoint
18 19 19 20 22 23 25 24 24 25 25 26 27 28 28 28 28 28 28 29 30 31 32 34 34 34 34
19 19 21 22 23 23 24 24 24 25 26 26 27 26 27 27 28 27 28 29 30 30 30 31 32 30 30
20 22 23 23 23 24 24 25 25 23 23 24 25 26 27 27 27 27 27 27 27 27 28 28 28 28 29
22 22 22 23 24 24 22 21 21 22 22 24 25 25 25 25 26 27 27 27 27 28 28 28 28 28 28
21 22 22 23 23 22 21 21 22 22 22 22 23 23 23 24 24 23 24 26 28 28 28 28 29 30 30
21 22 23 22 22 22 21 21 20 21 22 21 21 21 21 21 22 24 26 26 27 28 27 27 28 29 30
24 23 21 22 22 22 23 23 22 22 22 20 20 19 20 19 21 23 25 26 27 28 28 27 27 28 29
23 23 23 23 24 26 24 22 22 21 21 18 18 18 18 19 21 23 24 25 26 26 27 27 26 27 28
22 24 24 23 21 21 20 20 17 17 18 18 18 17 18 18 19 22 22 23 23 24 24 25 26 26 26
20 17 17 17 20 20 19 18 18 17 17 17 18 19 17 18 18 19 18 20 21 23 24 24 25 25 26
15 16 17 18 19 20 20 19 18 17 18 21 20 19 19 18 18 17 17 17 18 19 20 22 23 24 25
16 17 18 18 19 19 20 20 21 20 20 21 18 18 17 16 15 16 17 18 19 20 21 22 23 25 25
17 18 18 18 19 19 19 20 20 20 21 21 21 20 19 17 17 17 18 18 20 20 21 21 21 22 22
17 17 17 17 18 18 18 18 18 17 19 19 19 20 18 19 19 18 18 19 20 21 21 22 22 23 23
16 16 16 16 17 17 17 17 16 17 17 18 19 20 20 20 19 18 19 19 20 21 21 21 22 23 23
15 15 15 15 16 17 18 17 16 16 17 17 18 18 18 19 21 21 21 21 22 23 24 24 23 24 25
14 14 15 15 17 16 17 17 17 17 17 18 19 20 17 15 18 21 24 25 25 24 24 24 24 25 25

GFSFLT2_sfc_30mbdewp_033.txt.gz
Dewpoint
19 19 19 20 21 23 24 24 23 24 25 26 28 29 29 29 29 29 29 29 30 31 32 34 35 36 36
20 20 20 22 23 23 23 23 22 22 25 27 27 28 28 28 29 29 29 28 29 30 29 30 30 31 31
19 21 22 23 23 24 24 24 23 23 23 24 26 27 28 28 28 28 28 28 29 29 29 29 29 29 29
22 23 23 23 24 23 22 21 19 21 23 24 26 25 25 26 27 27 27 28 28 29 29 29 29 29 29
23 23 23 22 22 22 21 20 22 23 22 22 21 21 22 23 24 24 25 27 28 29 29 29 30 31 32
24 22 22 23 22 21 21 22 21 21 21 20 21 21 21 21 22 24 26 27 27 28 28 28 28 29 30
24 23 22 21 23 23 24 24 22 21 21 20 20 19 20 19 21 23 25 26 27 28 28 28 28 28 29
24 23 23 23 25 26 24 22 21 20 19 18 18 18 18 19 20 22 24 25 26 26 27 27 27 27 28
22 24 24 23 22 21 21 20 19 17 18 17 17 17 17 18 19 21 22 23 23 24 25 25 26 27 27
20 18 17 16 21 20 20 20 19 18 17 18 18 18 17 16 17 18 19 20 21 23 24 24 25 26 26
15 14 17 18 18 19 20 21 20 19 19 20 20 19 19 18 18 17 18 18 19 20 21 22 23 25 25
15 16 18 19 20 20 20 21 21 21 22 22 19 19 18 17 16 17 18 20 21 21 23 23 24 25 25
17 18 19 19 20 20 21 21 21 21 22 22 22 21 20 18 18 19 19 20 21 22 24 23 23 24 24
17 17 17 18 19 19 19 19 19 19 21 22 22 22 20 20 20 19 20 20 21 22 23 24 24 24 24
16 16 16 17 18 19 19 19 19 19 19 20 22 22 22 21 19 20 19 20 22 23 23 23 23 24 25
16 16 16 17 17 19 20 20 19 19 19 20 21 21 20 20 22 21 22 23 24 25 26 25 24 25 26
16 16 16 17 18 18 18 19 20 21 21 21 21 21 18 17 19 21 24 26 26 25 25 24 24 25 26

GFSFLT2_sfc_30mbdewp_036.txt.gz
Dewpoint
23 25 26 27 26 22 23 22 22 23 25 26 27 28 30 30 30 30 31 31 31 31 31 32 34 34 36
30 30 30 29 28 24 23 23 22 22 24 26 28 29 29 30 30 30 30 30 30 30 31 31 30 31 31
30 28 28 28 29 26 24 22 22 22 21 22 25 26 28 29 29 29 29 29 30 30 30 30 31 31 31
26 26 28 29 28 24 21 20 19 18 21 24 25 26 27 27 28 28 28 29 29 29 30 30 30 30 30
27 29 27 24 20 21 20 19 18 21 21 21 20 20 21 23 23 24 25 26 27 29 30 30 30 30 30
28 24 20 20 20 20 19 20 19 22 20 20 21 20 21 21 22 23 25 27 28 28 29 29 29 29 29
24 21 20 20 22 24 21 22 22 22 21 19 20 20 20 19 21 22 24 26 27 28 29 29 29 28 29
23 22 22 21 21 25 25 24 21 20 20 19 19 18 19 19 21 22 23 25 26 27 27 28 28 28 27
23 23 24 24 24 21 20 21 20 19 19 18 19 18 19 20 20 20 21 23 24 25 26 26 27 27 27
19 19 18 16 18 21 21 21 21 20 19 19 20 20 20 19 19 19 20 21 22 23 24 25 25 26 26
16 13 14 17 18 19 20 22 22 21 21 23 21 21 21 21 20 20 20 20 21 22 22 23 24 25 26
11 14 17 21 23 23 23 23 23 24 25 25 22 22 21 20 19 20 20 22 23 24 26 25 25 26 26
16 19 21 22 23 23 24 24 25 25 25 25 24 22 21 20 20 20 21 21 23 24 26 26 26 26 25
18 18 18 19 20 22 22 22 22 22 26 27 26 25 22 22 22 21 21 21 22 24 25 26 26 25 25
19 18 18 18 20 21 21 22 22 22 23 24 25 26 26 24 22 21 21 21 23 24 25 25 26 26 26
19 19 19 20 20 21 22 22 21 22 22 23 23 23 23 24 24 23 23 24 25 26 27 26 26 27 27
19 19 19 19 20 20 21 21 22 22 22 23 25 24 22 20 21 23 23 24 25 26 26 26 26 27 28

GFSFLT2_sfc_30mbdewp_039.txt.gz
Dewpoint
29 29 29 30 33 33 32 29 26 25 25 27 28 28 29 30 31 31 31 32 32 32 33 32 32 32 35
31 32 32 32 32 32 30 27 26 25 28 29 29 28 28 30 30 31 31 31 31 31 32 32 32 32 32
31 31 31 32 31 30 29 28 28 25 24 22 21 23 27 29 30 30 30 31 31 31 31 31 31 32 32
30 30 30 29 31 29 27 27 23 21 20 21 24 25 26 27 27 27 28 29 30 30 30 30 31 31 31
30 29 28 27 27 25 23 22 21 22 22 23 23 23 23 24 24 24 24 25 27 28 29 30 30 30 30
28 26 25 23 21 21 23 23 21 22 23 23 24 23 23 23 23 23 25 26 27 28 29 29 29 29 29
27 25 22 22 25 24 24 23 22 23 23 22 22 22 22 21 22 23 24 25 26 27 28 29 29 29 29
24 23 23 23 23 23 25 25 24 23 23 20 21 21 21 22 22 23 24 25 26 27 28 28 29 28 28
24 23 24 24 24 24 23 22 21 21 22 21 20 21 21 22 22 23 23 23 24 25 26 27 27 28 27
19 19 20 19 18 20 21 21 22 21 21 20 21 22 23 22 22 23 23 23 23 24 24 25 25 26 25
18 16 13 15 18 19 21 22 22 21 23 24 25 24 22 22 22 22 22 22 23 23 24 24 25 26 26
11 12 16 21 24 24 24 25 25 25 25 25 24 22 21 20 19 20 21 22 23 24 25 26 26 27 27
14 19 22 24 24 24 24 25 26 26 26 26 25 24 23 20 20 20 21 21 22 23 25 26 27 27 26
18 19 19 20 21 22 22 22 23 22 25 27 28 27 24 24 23 21 21 22 22 23 24 25 25 26 26
20 20 20 20 21 22 22 22 21 21 22 24 26 28 28 27 24 23 22 23 23 24 24 25 26 26 27
20 20 20 21 20 20 21 21 22 22 22 22 23 23 24 25 27 25 25 25 25 25 26 26 26 27 27
20 21 21 19 19 19 20 21 21 21 21 23 24 23 22 20 22 24 24 25 25 24 25 25 25 26 27

GFSFLT2_sfc_30mbdewp_042.txt.gz
Dewpoint
32 32 31 30 33 34 35 34 34 34 32 29 29 30 31 32 31 32 32 33 33 33 34 34 33 33 33
31 31 32 33 33 33 32 31 29 27 28 29 31 31 30 28 28 31 31 32 32 32 32 33 32 32 32
32 32 32 32 32 33 31 30 29 29 29 27 24 23 25 28 30 31 31 31 32 32 32 32 32 32 32
31 31 31 32 32 30 28 29 29 27 22 22 23 25 26 27 26 27 27 28 29 30 30 30 31 31 31
30 30 30 30 29 28 28 27 23 23 23 23 24 24 24 25 25 24 25 26 27 28 29 30 30 30 30
30 28 26 25 26 25 24 22 21 23 23 22 23 23 24 24 25 25 26 26 27 28 28 29 29 30 29
26 27 24 23 24 23 22 22 22 23 23 22 23 23 24 23 24 24 25 26 27 28 28 29 29 30 29
26 25 25 25 24 24 24 24 24 24 23 21 22 21 22 23 24 24 26 27 27 27 27 28 28 28 28
25 24 23 24 25 24 23 22 21 21 22 21 21 21 21 21 23 25 25 26 26 26 26 27 27 28 28
19 20 21 19 19 21 22 19 19 20 22 21 22 23 20 23 22 22 23 25 25 25 25 26 26 26 27
19 18 16 14 15 18 20 19 19 21 22 23 23 23 23 22 22 22 22 22 22 23 23 24 25 26 27
13 11 14 19 22 23 24 24 25 25 25 26 24 22 22 21 20 20 21 22 22 23 23 24 25 26 26
14 17 20 21 22 21 22 24 25 25 25 26 25 24 24 22 21 21 21 21 23 23 24 24 24 24 24
17 18 20 20 19 21 21 22 23 23 26 26 26 25 24 24 24 22 23 22 23 24 24 24 24 25 25
20 19 19 20 21 21 22 23 22 21 21 23 25 27 28 28 25 24 23 23 24 24 24 24 25 26 26
20 20 20 21 21 21 22 22 20 20 21 21 23 24 25 25 27 25 25 25 25 26 26 25 25 25 26
20 21 22 21 20 20 19 20 19 20 20 22 23 22 19 18 20 23 23 24 25 24 25 25 24 25 26

GFSFLT2_sfc_30mbdewp_045.txt.gz
Dewpoint
34 35 35 37 38 37 36 36 36 36 37 39 38 33 32 32 33 33 33 33 33 34 34 34 34 34 34
32 32 33 34 35 34 35 36 35 35 35 34 32 31 32 32 30 29 30 32 32 33 33 33 33 33 34
32 32 32 32 32 34 34 33 31 31 31 31 30 27 26 27 28 30 31 31 32 32 31 32 32 32 33
32 31 32 32 33 32 31 31 29 29 28 25 25 26 26 28 28 27 28 28 29 29 30 31 31 31 32
31 31 31 30 30 30 29 28 25 25 23 23 24 23 23 25 26 25 25 26 28 29 30 30 30 30 30
30 29 30 28 27 27 25 22 20 24 22 22 23 23 23 24 26 27 27 27 28 28 29 30 30 30 30
27 27 25 23 24 23 23 22 21 22 23 23 24 22 24 24 25 26 26 27 28 29 29 30 30 30 29
28 26 24 25 24 24 23 24 24 24 24 20 22 21 22 23 25 26 27 28 28 28 28 29 29 29 29
26 25 24 24 24 24 23 22 21 21 22 21 21 22 22 22 23 26 27 25 26 27 28 28 28 28 29
20 19 20 19 21 20 21 19 18 18 22 22 22 23 20 21 23 22 23 24 24 24 25 26 27 27 26
19 18 14 13 17 18 20 18 16 18 22 23 22 23 22 21 22 22 22 22 21 22 24 25 26 27 27
14 11 14 19 22 23 24 23 22 23 24 25 24 22 21 20 20 21 21 22 23 22 23 24 25 26 26
15 17 19 19 20 20 20 22 23 24 24 25 25 25 24 21 21 21 22 22 23 24 24 23 23 24 24
18 19 20 20 20 21 20 22 22 23 24 26 27 27 23 23 23 22 22 22 23 24 24 24 25 25 25
20 20 19 19 20 22 21 22 21 20 20 22 24 25 25 25 23 24 23 23 24 24 24 24 25 26 26
20 20 19 20 21 22 22 21 20 19 19 20 21 22 23 23 25 24 24 23 24 25 25 25 24 25 26
21 21 21 21 19 20 20 20 19 19 19 19 20 20 17 16 18 20 20 21 23 23 24 23 23 24 25

GFSFLT2_sfc_30mbdewp_048.txt.gz
Dewpoint
35 36 37 39 41 38 40 39 39 41 41 41 40 40 41 40 36 34 35 34 34 34 35 35 35 35 35
34 34 35 36 36 36 37 37 37 37 38 39 39 39 36 35 34 34 32 31 31 33 33 33 34 34 33
33 32 32 33 32 34 34 35 36 36 38 38 36 35 34 31 29 29 30 31 32 33 32 32 32 34 34
33 32 32 31 32 32 31 33 33 34 31 29 28 27 28 28 28 29 30 30 30 30 30 31 31 32 32
31 31 31 31 30 31 31 30 28 27 25 23 23 23 23 25 25 26 27 27 28 29 30 31 31 31 30
30 30 30 30 30 29 27 24 20 24 22 21 23 22 23 24 26 27 28 29 29 29 30 30 30 30 30
29 27 25 23 24 23 23 22 21 22 23 22 24 22 23 24 26 26 27 28 29 29 30 30 30 30 30
28 26 25 24 24 23 23 23 24 24 24 20 22 21 22 22 25 26 27 28 29 30 30 30 30 30 30
26 25 25 24 25 25 23 22 21 21 22 21 21 22 22 22 23 27 27 26 26 27 28 28 29 29 29
21 19 20 19 21 21 21 17 18 17 21 21 22 22 19 20 23 22 22 24 25 26 26 27 28 28 27
18 17 14 13 17 20 19 17 15 16 20 23 21 23 22 20 21 22 22 22 22 23 24 26 26 27 27
14 12 16 19 20 22 23 23 19 21 22 23 23 22 21 20 19 21 21 22 22 23 23 24 26 27 27
14 16 18 19 19 19 20 21 22 22 25 25 24 25 24 22 21 21 21 22 23 23 24 23 23 24 23
17 19 20 19 20 21 20 20 20 20 22 23 26 26 24 24 23 21 21 21 22 23 23 25 25 25 25
20 20 19 19 19 20 21 22 20 19 19 20 21 23 24 24 22 22 22 22 23 24 24 23 24 25 25
19 20 20 20 20 21 23 20 19 18 18 19 19 19 20 21 24 22 22 23 23 24 24 24 23 24 25
20 20 21 20 19 18 19 19 18 18 18 18 17 17 16 14 16 18 20 20 21 22 23 23 22 22 24

GFSFLT2_sfc_30mbdewp_051.txt.gz
Dewpoint
37 36 37 40 40 40 42 41 44 44 44 43 43 43 43 42 42 43 42 40 39 38 37 37 37 37 37
35 34 35 36 37 37 39 39 39 39 41 42 41 41 40 41 40 38 37 37 36 34 33 34 35 35 35
34 33 33 34 33 34 35 36 37 37 38 40 40 40 40 40 39 37 33 31 31 32 33 34 33 34 34
33 32 32 31 32 32 31 33 33 36 37 37 35 32 33 32 30 30 30 31 32 32 32 32 32 32 32
32 31 31 31 31 31 31 31 31 32 28 26 24 23 23 25 25 25 26 28 30 30 29 30 31 31 32
30 29 30 30 31 30 29 26 22 24 22 21 22 22 23 23 25 26 28 28 28 29 31 31 30 31 32
27 26 24 23 23 23 23 22 21 22 23 22 24 22 23 23 26 27 28 29 30 30 30 30 30 30 30
26 26 25 24 24 23 23 23 24 24 25 21 21 21 21 22 25 27 28 29 29 30 30 30 30 31 31
26 25 25 25 25 25 23 22 20 21 22 21 21 22 23 22 23 27 28 28 27 28 29 29 29 30 30
20 19 19 18 19 21 22 18 17 16 20 21 21 21 19 20 22 22 22 24 25 26 27 27 28 28 27
17 16 13 15 20 23 19 16 14 15 19 22 20 21 20 20 21 22 21 22 22 23 24 25 27 27 27
13 13 17 18 19 20 21 21 19 19 20 21 22 22 21 20 19 20 21 21 22 22 23 24 26 26 28
14 16 18 18 19 20 20 21 21 21 23 22 22 23 24 21 20 20 21 21 22 22 22 23 23 23 23
17 19 20 19 20 21 21 20 19 19 20 21 21 24 23 23 23 22 21 20 20 21 22 23 24 25 25
19 19 19 19 19 20 20 21 20 18 18 19 20 21 21 22 20 21 20 21 22 23 23 24 23 24 24
18 20 20 20 20 20 22 20 17 17 17 18 18 18 18 19 22 20 21 21 22 23 24 23 22 23 24
18 18 19 20 18 18 17 18 17 17 17 17 16 16 14 13 16 19 21 21 21 21 21 21 21 21 22

GFSFLT2_sfc_30mbdewp_054.txt.gz
Dewpoint
38 37 37 39 40 41 42 42 44 48 48 46 46 45 44 45 45 44 43 43 44 43 43 43 43 43 42
35 35 35 36 37 38 39 39 39 41 42 42 42 42 43 42 42 42 42 41 40 40 40 38 36 36 36
35 34 33 34 34 35 35 36 37 38 38 39 39 40 41 41 41 41 41 40 38 35 34 33 34 35 35
33 33 33 33 33 32 32 33 33 36 37 38 38 38 37 38 36 34 33 32 33 33 33 34 34 33 33
32 32 31 31 31 31 31 31 31 32 29 27 26 25 24 25 26 25 25 26 27 30 31 31 31 31 31
29 28 28 29 28 28 27 25 22 23 22 21 22 22 23 23 25 25 26 27 28 27 28 29 30 31 32
26 26 24 23 22 22 22 21 21 22 23 22 23 22 22 22 25 26 28 29 30 30 30 30 30 30 31
25 25 24 24 24 23 23 23 24 24 24 21 21 20 21 22 25 27 28 29 29 30 29 29 30 32 32
26 25 25 25 24 25 23 21 20 20 22 21 21 21 22 22 22 28 29 29 29 29 29 30 30 30 30
18 17 17 15 19 21 21 18 17 14 19 21 21 20 18 19 21 21 22 24 26 27 27 29 28 28 28
14 14 15 20 22 22 20 16 14 15 18 22 20 22 20 20 21 21 21 21 22 22 23 25 26 27 27
12 14 16 18 19 20 20 21 18 18 20 20 20 21 20 20 19 20 20 21 21 21 22 24 26 25 27
15 16 17 18 18 19 20 20 20 21 23 21 20 19 22 20 20 20 21 21 22 22 22 22 22 23 22
17 19 20 19 19 21 20 20 20 20 20 20 19 19 21 21 22 21 21 21 20 20 21 22 23 23 24
18 19 19 19 19 20 20 21 19 18 17 18 19 20 19 19 18 19 19 19 21 22 22 22 23 24 25
17 18 18 19 20 20 21 21 18 17 16 16 16 17 17 17 21 18 19 19 20 22 23 22 21 22 24
14 14 16 17 19 18 18 17 17 16 16 16 15 15 13 12 15 20 20 20 21 21 21 21 20 20 22

GFSFLT2_sfc_30mbdewp_057.txt.gz
Dewpoint
39 38 39 38 39 41 42 42 42 44 47 47 46 46 45 45 45 45 44 43 43 44 46 45 45 45 45
37 36 36 37 37 38 39 39 39 40 42 42 42 42 42 42 43 42 42 42 43 42 42 42 43 42 41
36 35 35 35 35 36 36 36 37 38 39 39 40 40 41 41 42 42 42 42 42 41 40 40 40 38 38
34 34 34 33 34 33 33 35 34 36 35 36 37 37 37 37 37 36 34 35 36 37 37 35 34 35 35
33 32 31 31 31 31 30 30 31 27 25 25 26 27 28 27 26 26 26 27 28 28 29 31 32 32 32
29 28 27 26 25 25 25 23 23 24 23 21 23 22 22 23 23 25 26 26 27 28 28 28 30 30 31
25 25 24 24 24 25 24 24 22 22 23 19 22 18 18 20 24 27 27 28 29 29 30 30 30 30 32
26 26 26 26 26 25 25 24 23 22 23 18 20 18 21 22 25 28 28 29 29 30 30 29 30 32 32
25 25 24 24 24 25 23 21 16 18 21 20 20 20 21 21 22 26 28 29 29 29 30 30 30 30 30
15 14 15 16 22 20 22 19 19 17 19 21 20 20 21 19 20 21 21 24 26 27 29 28 29 29 28
12 13 18 21 22 22 21 21 20 19 19 24 23 22 21 21 20 20 21 21 22 22 23 25 26 26 27
12 14 17 20 21 22 22 23 21 22 22 23 22 22 21 20 19 20 20 21 22 22 24 25 25 26 27
15 18 20 21 21 22 23 23 23 22 23 24 22 22 21 20 20 20 21 21 23 24 25 25 24 24 23
18 19 20 21 21 21 20 20 21 20 23 23 22 21 20 21 21 20 21 22 22 22 23 23 23 23 24
19 18 17 18 19 20 19 19 19 19 19 19 20 21 21 20 18 18 18 19 21 22 22 22 23 23 24
17 18 18 19 19 19 20 19 18 18 17 17 17 16 17 18 21 19 19 20 21 22 22 22 22 23 23
15 16 16 16 16 17 17 17 17 17 17 17 16 15 15 15 17 21 22 22 21 21 21 22 22 23 22

GFSFLT2_sfc_30mbdewp_063.txt.gz
Dewpoint
42 41 41 40 40 40 40 40 42 42 43 44 44 45 46 47 47 47 46 46 46 46 47 47 46 47 47
41 40 39 38 38 38 38 39 39 39 41 41 42 43 43 43 43 43 42 42 42 43 43 43 43 44 45
38 39 38 36 36 36 36 37 37 35 35 37 38 39 40 41 41 39 41 42 42 42 42 42 42 42 42
37 37 35 35 35 34 34 35 34 30 31 30 31 33 35 36 35 34 34 35 37 38 39 40 40 40 38
35 36 33 32 31 32 30 28 29 26 24 25 23 25 27 26 27 27 29 30 31 32 33 35 35 36 37
32 31 31 28 25 25 24 24 24 24 21 19 20 20 19 19 22 24 27 27 28 29 29 29 29 30 30
23 23 23 24 28 28 26 25 23 23 21 18 18 17 19 19 25 27 29 29 29 29 29 29 29 30 30
26 26 27 27 26 26 25 24 23 22 21 18 19 20 21 22 25 28 29 30 31 30 30 30 31 30 29
24 23 24 24 24 25 25 22 21 14 20 21 22 21 21 21 24 26 25 25 28 30 31 31 32 33 33
18 17 16 16 20 20 19 23 23 22 22 22 24 23 24 23 21 23 23 23 24 26 29 29 30 29 30
11 11 14 18 19 21 22 25 25 24 25 24 24 24 24 24 24 24 23 23 24 25 25 25 28 29 28
10 10 12 17 22 23 24 25 26 25 26 26 23 23 22 21 22 24 24 25 25 25 27 28 28 27 27
11 14 19 23 25 24 26 25 24 25 25 25 24 24 24 21 21 22 23 24 25 25 26 27 28 28 27
15 16 17 22 23 23 23 23 22 22 26 26 24 24 22 22 22 22 23 22 25 26 26 27 27 27 27
15 16 16 16 18 21 22 22 21 21 22 26 26 25 24 23 21 21 21 21 22 24 25 24 25 26 27
18 19 18 18 19 20 21 21 21 21 21 21 22 22 21 21 23 21 21 21 23 25 24 23 23 25 26
19 20 20 20 20 19 19 19 19 20 20 21 21 21 18 16 19 22 22 23 24 24 24 24 23 24 26

GFSFLT2_sfc_30mbdewp_069.txt.gz
Dewpoint
42 41 39 39 38 39 39 39 41 40 42 43 44 45 46 46 46 46 47 47 48 48 49 49 49 49 50
41 39 38 37 36 37 37 38 38 37 39 40 41 41 43 43 43 44 44 44 44 44 45 46 46 45 46
38 38 37 36 35 36 36 35 37 33 32 33 34 37 39 40 40 39 39 41 42 42 42 42 42 43 43
37 36 35 35 35 32 32 30 29 25 26 29 30 32 31 34 32 32 33 34 35 38 39 39 40 41 40
36 35 34 33 30 30 26 25 25 23 21 19 20 21 26 30 30 27 28 28 30 32 34 35 36 36 37
32 31 30 27 26 24 24 23 21 24 20 17 20 17 18 18 24 27 28 30 29 29 29 30 31 32 33
26 24 24 25 25 25 25 24 23 23 20 13 20 19 22 22 27 27 30 30 32 32 31 30 30 30 30
26 27 27 27 26 26 24 24 24 22 20 13 21 21 22 22 27 27 28 27 27 31 31 31 31 31 31
25 25 25 24 24 23 24 22 19 17 22 20 22 23 23 25 23 27 27 26 26 26 29 32 32 32 31
20 19 17 17 20 20 20 18 21 20 22 20 22 23 17 23 25 25 24 26 27 26 27 28 28 29 29
13 12 13 17 19 22 23 21 21 22 26 22 21 22 21 21 22 23 24 23 24 24 26 28 28 28 28
11 10 11 15 21 22 23 24 24 23 25 23 22 20 19 19 19 22 22 23 24 23 23 24 27 27 28
10 12 15 20 23 23 23 24 24 24 25 23 22 20 20 19 20 21 22 22 22 22 23 23 23 24 25
12 15 20 23 22 21 21 22 22 22 23 24 22 22 21 21 22 21 21 19 20 20 22 22 23 24 25
15 15 16 17 19 20 21 20 21 20 20 21 24 24 22 21 21 21 21 20 21 21 21 20 22 24 25
14 15 16 17 17 19 19 19 19 19 19 19 20 23 23 23 25 22 22 21 21 21 21 21 23 24 24
14 14 15 16 19 18 18 19 18 17 18 18 18 18 17 17 18 23 22 19 19 20 22 22 22 22 23

GFSFLT2_sfc_30mbdewp_072.txt.gz
Dewpoint
42 41 39 39 39 40 39 40 40 40 42 43 43 45 46 46 46 46 46 47 48 49 49 50 50 50 50
41 39 38 37 37 37 38 38 37 37 39 39 40 41 43 43 43 44 44 45 45 45 46 46 46 46 46
38 38 37 36 36 36 36 35 35 32 32 33 34 37 38 39 39 39 39 41 42 42 43 43 43 44 43
37 36 35 35 35 32 34 30 29 24 25 28 31 33 32 34 33 33 33 34 36 37 39 39 40 41 40
36 35 35 33 31 31 28 25 25 23 22 20 20 20 28 31 28 27 27 28 29 32 33 35 36 36 37
34 33 31 30 27 25 23 22 19 25 20 17 19 17 18 18 25 27 29 32 32 30 29 30 31 32 33
31 29 27 26 25 25 24 23 21 23 21 13 21 19 22 22 28 28 30 30 32 32 31 30 30 31 31
26 26 26 26 26 25 24 23 24 22 20 13 21 21 22 23 29 27 28 28 27 29 32 31 32 32 32
28 29 29 29 26 25 24 23 18 17 22 19 22 22 23 25 23 29 29 28 26 27 28 31 32 33 31
21 19 17 18 22 21 22 19 20 19 22 21 22 22 16 22 25 24 24 28 29 29 29 29 29 28 28
15 12 13 17 20 21 22 19 19 21 25 22 21 21 20 20 21 23 23 22 23 24 26 28 29 29 28
11 10 11 15 20 22 23 24 23 23 26 23 21 20 18 17 17 21 22 22 23 22 22 25 25 25 26
11 12 14 19 22 23 24 24 23 24 25 22 22 18 19 18 18 20 21 21 21 21 22 21 21 22 21
12 13 20 22 22 22 20 21 22 22 24 24 21 20 21 20 20 20 21 20 19 20 21 21 22 23 23
14 15 16 20 21 21 21 20 20 20 21 21 24 22 21 21 21 21 21 21 21 20 21 20 21 21 23
18 16 16 17 17 18 18 18 18 19 19 19 19 21 21 21 24 22 22 21 21 20 21 19 20 22 24
16 16 15 16 19 18 18 18 18 18 18 17 17 18 16 15 18 24 22 20 20 19 20 20 19 20 22

GFSFLT2_sfc_30mbdewp_075.txt.gz
Dewpoint
42 42 41 41 40 40 40 40 39 41 42 43 42 43 45 46 47 47 47 48 49 51 52 52 53 53 52
40 40 38 38 37 38 38 38 36 37 39 39 40 42 43 43 43 44 44 45 46 47 48 47 48 48 48
38 38 37 36 36 36 36 35 31 31 33 33 36 36 39 39 38 38 39 40 41 42 43 44 44 44 44
38 37 36 35 35 33 34 30 28 24 25 28 30 34 34 34 32 31 31 33 35 37 38 40 40 41 41
36 35 35 34 32 32 31 26 25 23 22 20 20 20 28 29 26 27 28 29 29 32 33 35 36 36 37
35 34 33 31 29 28 25 23 19 25 20 17 19 17 18 18 26 27 31 33 33 31 30 30 32 33 33
33 31 30 28 27 25 24 23 20 23 22 14 21 19 22 22 28 28 30 30 31 32 31 30 30 31 31
27 26 26 26 26 25 24 23 23 22 20 14 21 20 23 23 29 27 28 28 28 29 32 32 32 32 33
30 30 30 29 28 25 23 22 19 18 22 19 21 21 23 24 24 30 30 29 27 28 28 30 32 33 31
21 20 17 20 26 22 24 20 19 18 22 20 21 21 16 22 24 24 24 29 29 30 29 30 29 28 28
16 13 14 18 20 20 21 19 18 20 25 22 21 21 20 19 20 22 23 22 22 24 24 26 28 29 28
12 11 12 15 20 22 23 23 23 23 26 23 21 20 17 16 15 20 22 22 23 22 22 24 22 23 24
12 12 14 17 21 23 24 24 24 24 25 23 22 18 19 18 17 19 21 21 21 21 22 20 21 21 20
14 13 20 22 21 23 22 22 21 22 24 25 21 20 20 20 19 20 20 20 19 20 21 21 21 22 22
16 14 16 21 22 23 21 21 20 20 21 22 25 22 21 21 20 21 21 21 21 21 21 20 20 21 21
20 16 16 17 18 20 20 19 18 18 19 20 20 20 21 21 23 22 22 21 21 21 21 19 19 20 21
17 17 16 17 19 18 18 19 18 18 18 18 17 17 14 11 17 24 22 20 20 20 20 20 18 19 20

GFSFLT2_sfc_30mbdewp_078.txt.gz
Dewpoint
42 43 42 42 42 41 41 40 40 41 42 42 42 43 45 45 47 47 47 48 49 50 51 53 55 56 56
41 40 39 39 39 39 39 38 36 37 39 39 40 42 42 41 42 43 44 45 46 47 48 49 51 51 52
39 39 37 37 37 37 36 35 28 31 33 36 37 36 39 38 37 37 38 40 41 42 43 45 45 45 46
39 37 37 36 36 34 35 32 29 24 26 28 30 34 35 34 30 29 30 32 36 38 39 40 41 42 41
37 36 35 34 34 33 33 28 25 24 22 20 20 20 28 26 27 28 30 31 30 32 35 36 37 37 38
37 36 35 33 30 30 28 26 26 24 21 18 19 18 19 23 28 28 31 33 33 32 30 31 33 34 34
35 33 32 30 28 26 24 23 20 23 22 16 20 19 22 22 28 29 30 29 31 32 31 30 31 31 31
29 29 27 28 27 26 25 23 23 22 20 15 20 20 22 23 30 28 28 29 28 30 32 32 32 33 34
31 30 30 29 27 24 22 21 19 19 21 18 20 21 22 24 25 31 30 29 27 29 29 31 32 34 32
22 19 20 26 29 23 25 22 19 16 21 20 21 20 16 22 24 24 24 29 30 30 30 30 30 28 28
16 14 14 20 20 20 23 20 18 18 24 22 21 21 20 19 20 22 23 23 22 23 25 27 28 29 28
14 12 12 15 20 22 23 23 23 22 26 23 21 20 18 15 14 20 21 22 22 23 22 25 23 24 24
15 13 14 17 22 23 24 24 24 24 26 24 23 18 19 17 17 19 21 21 22 21 21 21 21 21 19
15 14 19 20 20 23 22 24 22 22 26 24 22 20 20 20 19 20 20 20 20 20 21 21 21 22 21
18 14 15 20 22 24 22 21 19 20 22 23 25 22 21 21 20 20 20 20 21 20 21 20 20 21 21
21 18 15 17 20 22 21 19 18 18 19 20 21 20 21 21 23 21 22 21 21 21 21 19 19 20 20
20 20 18 16 18 18 18 18 17 18 18 18 18 17 13 8 15 25 21 21 20 20 20 20 19 21 21

GFSFLT2_sfc_30mbdewp_081.txt.gz
Dewpoint
44 44 43 43 43 42 42 41 41 42 42 43 43 44 45 45 46 47 47 49 50 51 53 54 57 57 57
42 41 41 41 41 40 40 38 37 38 40 39 41 43 42 41 42 43 44 45 46 48 48 50 52 53 54
41 40 39 39 38 38 37 36 29 33 35 38 37 39 40 37 36 36 38 40 42 43 44 45 46 48 49
40 39 38 37 37 36 35 34 30 25 27 29 31 35 36 33 30 31 31 33 37 39 40 41 43 43 43
38 38 36 35 35 34 35 31 28 27 25 23 22 22 30 26 28 30 32 33 31 34 37 38 39 40 40
38 37 36 35 33 33 31 30 32 26 23 22 20 19 20 26 29 30 31 33 33 31 31 33 35 35 36
36 36 34 33 31 29 28 28 24 24 22 19 20 19 22 22 29 29 30 30 32 32 30 30 31 31 32
32 32 31 31 30 30 28 27 25 23 22 19 19 19 22 23 30 29 29 29 29 33 32 32 32 33 33
30 30 30 30 28 26 26 25 23 20 22 18 20 20 22 23 27 31 30 30 28 30 31 32 34 34 33
26 23 27 30 28 25 26 23 21 18 21 21 21 20 19 23 25 25 25 30 31 31 30 31 31 29 29
18 15 18 23 22 21 25 25 23 21 23 24 24 23 22 22 21 23 24 24 23 24 25 27 28 29 29
17 14 13 17 22 23 23 24 25 24 28 26 24 24 22 20 20 20 21 23 24 24 24 25 24 24 25
17 16 17 20 24 25 26 25 25 26 27 27 26 24 23 21 20 21 21 22 24 24 24 24 23 23 22
17 16 19 21 21 24 23 24 24 23 27 26 24 22 22 22 22 21 22 21 23 23 24 24 23 23 22
20 16 15 19 20 23 23 24 20 21 22 25 25 24 24 24 21 21 19 20 22 23 23 22 22 23 22
24 21 18 19 21 23 23 22 21 20 21 23 24 23 21 21 23 20 21 21 23 23 23 21 21 23 21
24 23 21 20 19 21 22 21 20 20 20 21 21 21 17 13 16 24 21 22 22 22 22 22 22 23 22

GFSFLT2_sfc_30mbdewp_084.txt.gz
Dewpoint
46 45 46 45 44 43 43 42 42 44 42 43 43 45 44 45 45 46 47 48 49 50 51 54 56 56 56
45 43 43 43 42 41 40 38 38 39 41 40 42 43 42 41 41 42 44 44 45 47 48 50 52 55 57
44 43 42 41 40 39 38 36 31 37 38 39 38 41 40 37 34 35 38 40 42 43 44 46 47 50 52
43 41 40 39 39 37 36 35 31 27 31 32 33 37 37 32 31 31 33 33 37 40 41 42 43 44 47
40 39 38 37 36 36 36 34 31 29 29 28 27 27 34 28 28 31 33 33 32 34 38 39 39 41 41
39 38 38 37 36 34 34 32 32 30 30 29 23 24 22 25 29 30 31 33 33 31 32 35 36 37 38
37 37 37 36 34 33 32 32 32 25 27 25 22 20 21 21 30 30 30 30 33 31 30 31 32 32 33
35 36 34 34 34 34 33 32 29 26 26 21 19 18 21 22 29 30 29 29 29 33 32 32 32 32 32
30 31 31 32 32 30 29 28 25 22 24 20 19 19 21 22 28 30 30 29 30 31 33 34 35 34 34
29 31 31 30 28 27 30 31 25 20 20 21 20 19 20 23 25 28 29 31 33 31 31 31 32 30 29
19 18 24 28 25 20 25 30 28 24 22 25 26 23 25 24 23 24 25 25 25 26 26 27 28 29 29
17 15 14 17 22 22 23 25 25 28 26 29 29 27 26 23 21 22 24 25 25 24 25 26 27 26 26
18 17 19 21 26 27 27 27 27 28 29 29 29 28 27 25 23 22 21 23 25 26 26 26 25 25 24
19 19 20 22 21 24 24 23 24 25 28 29 28 26 25 24 24 24 24 25 25 25 25 25 24 23 24
20 17 14 18 19 23 23 24 23 21 22 26 26 26 26 26 23 22 20 20 23 25 25 23 24 24 23
26 23 18 19 20 23 24 24 23 21 21 24 25 24 23 24 25 22 20 22 24 25 25 23 23 25 23
28 27 26 24 22 22 22 22 23 22 21 23 24 23 20 17 20 26 24 24 24 23 24 24 24 26 25

GFSFLT2_sfc_30mbdewp_087.txt.gz
Dewpoint
48 47 47 46 44 44 44 43 43 44 43 43 43 45 44 44 44 45 45 46 48 49 50 51 53 56 56
46 45 45 44 43 42 40 39 38 41 42 41 42 43 42 41 40 40 42 43 44 45 47 48 50 53 56
45 45 43 42 41 40 39 37 33 39 39 40 39 42 40 37 35 34 36 39 41 42 43 45 47 49 52
44 42 42 41 41 39 37 37 34 29 33 34 35 38 37 33 32 32 34 34 35 39 41 42 43 45 48
42 41 40 38 38 38 37 36 34 32 30 30 30 33 36 30 29 31 32 33 33 34 38 39 40 41 43
40 39 39 38 38 36 35 33 34 32 30 31 25 28 26 26 29 30 30 33 34 31 33 35 37 38 40
38 38 38 38 36 35 34 33 33 27 30 29 25 24 23 23 30 30 30 30 33 31 30 32 33 34 35
37 38 37 36 36 35 34 33 30 27 27 23 21 21 23 24 28 30 30 29 31 33 33 32 32 32 33
31 33 33 34 34 32 33 32 29 25 24 22 20 21 22 23 28 31 30 29 30 33 34 35 36 35 34
32 32 32 32 30 30 32 31 29 22 24 22 20 20 21 23 28 30 32 33 32 32 32 32 32 30 30
25 27 29 29 26 24 28 32 29 27 24 28 27 23 27 24 24 26 26 27 27 28 29 28 28 30 31
19 17 19 24 23 24 25 26 28 31 26 30 29 28 27 24 23 22 24 26 26 26 26 26 28 27 27
20 19 21 25 27 28 28 28 29 30 30 29 30 28 28 27 25 22 22 24 25 26 28 27 26 27 25
21 22 25 26 25 26 25 25 25 26 28 29 29 26 26 25 25 25 25 25 26 26 26 26 26 25 25
21 20 20 22 23 26 25 25 25 24 26 27 27 27 27 27 24 25 24 24 25 26 26 25 26 26 26
24 21 18 21 22 24 25 26 24 23 24 25 25 25 25 26 26 23 22 22 25 26 25 24 24 27 26
28 27 24 23 23 24 25 25 25 24 24 25 25 24 22 19 26 27 25 25 25 25 25 25 25 27 27

GFSFLT2_sfc_30mbdewp_090.txt.gz
Dewpoint
47 47 46 45 45 45 45 44 44 44 44 44 44 45 44 44 43 43 44 44 46 47 48 49 51 52 56
46 45 45 45 43 42 41 40 40 41 43 42 42 44 43 41 40 39 39 42 43 44 45 47 49 51 54
45 45 43 42 41 41 40 38 35 40 40 41 40 42 42 37 36 35 35 36 39 42 43 44 46 48 51
44 43 42 41 41 39 38 38 36 31 35 35 38 39 39 35 32 33 34 34 35 37 41 42 43 45 47
42 41 40 39 38 39 38 37 36 33 30 31 32 33 37 33 30 32 31 33 34 33 37 39 40 42 43
40 40 40 39 38 37 36 35 35 33 31 31 30 30 29 28 29 30 30 32 34 31 33 36 37 38 40
39 39 39 39 37 36 35 34 34 31 31 30 26 25 22 26 30 30 30 30 33 32 31 33 34 34 35
39 38 38 38 37 36 35 34 29 26 28 26 22 22 24 24 28 31 30 29 32 33 33 33 33 35 36
33 35 37 37 36 35 33 32 30 27 26 22 20 21 22 23 26 31 30 30 31 34 34 35 35 34 34
32 33 34 34 35 32 32 31 29 23 25 21 20 20 18 23 29 30 32 32 34 33 33 32 32 30 30
29 30 30 29 26 27 31 31 28 25 24 27 23 23 27 22 24 27 27 29 29 29 30 29 28 30 30
24 25 27 28 22 24 27 28 30 27 25 28 26 23 22 23 21 23 25 26 26 26 26 27 28 28 28
22 18 20 24 25 26 27 27 29 29 28 28 27 27 26 25 22 20 22 24 26 25 27 27 26 27 25
21 22 26 25 24 25 23 25 23 26 29 28 28 25 23 24 23 23 23 22 24 25 26 26 26 26 25
23 23 23 24 24 25 24 24 24 24 23 26 27 26 26 25 23 24 25 25 25 24 25 24 25 26 26
22 22 22 22 22 25 25 23 23 24 24 25 25 23 24 24 26 22 23 22 24 25 25 22 21 24 26
23 21 19 20 22 24 24 24 24 23 23 24 23 22 19 13 25 27 21 23 24 25 25 24 23 25 27

GFSFLT2_sfc_30mbdewp_093.txt.gz
Dewpoint
47 46 46 45 46 46 45 45 45 45 44 44 44 45 44 44 43 42 43 43 44 45 46 47 48 50 51
46 45 45 45 44 44 43 42 42 41 43 43 42 44 43 41 39 38 38 39 41 43 44 45 47 49 50
45 44 43 43 42 42 41 39 37 40 41 41 41 42 43 38 36 35 35 36 37 39 42 43 45 46 48
44 43 42 42 41 40 39 39 38 34 38 36 40 40 41 36 33 32 33 33 34 35 39 41 42 44 45
43 42 41 39 39 40 39 38 38 36 31 32 35 35 38 35 31 32 31 32 34 33 35 38 40 41 42
42 41 40 40 39 38 37 36 36 35 33 32 31 30 34 31 30 30 30 31 33 32 31 35 37 38 39
40 40 39 40 39 37 36 35 35 33 32 32 27 27 25 29 31 30 30 30 33 33 32 33 34 35 36
40 39 39 39 38 38 37 35 29 29 31 29 24 24 25 23 28 29 30 30 33 34 35 34 37 37 37
37 39 39 39 38 35 34 33 31 29 26 24 21 20 22 22 24 29 30 30 32 33 33 34 34 34 34
32 35 38 38 38 35 34 32 31 28 25 23 20 20 17 23 28 30 31 32 34 34 33 32 32 30 30
29 31 31 32 31 31 32 31 30 25 25 23 20 23 24 22 24 28 29 30 31 30 30 29 29 30 29
27 28 29 28 25 27 30 30 28 26 26 25 22 20 23 22 20 24 26 26 26 26 26 28 29 29 28
26 26 27 27 24 26 26 28 28 28 28 28 24 24 22 20 22 21 21 24 25 25 26 26 26 26 24
25 23 23 25 23 24 23 24 23 25 28 27 26 25 25 24 22 21 23 20 24 24 26 26 26 26 25
23 23 22 24 23 23 21 23 17 20 23 25 26 26 25 22 21 22 24 24 24 24 24 23 24 25 25
24 23 23 23 23 23 22 20 20 23 20 23 24 22 21 21 26 21 23 24 23 25 25 22 20 23 25
25 24 24 23 24 23 23 22 22 23 24 24 22 17 12 7 24 27 21 22 23 24 24 23 21 24 26

GFSFLT2_sfc_30mbdewp_096.txt.gz
Dewpoint
46 46 46 46 47 46 46 45 46 46 46 45 45 44 45 44 43 42 41 42 43 44 45 45 45 47 49
45 45 45 45 45 45 44 44 43 43 44 44 44 44 44 42 40 38 38 38 39 40 42 43 44 45 48
44 44 43 44 43 43 42 40 39 40 43 43 42 43 44 41 37 36 35 35 36 37 39 41 43 44 45
44 43 42 42 42 41 40 40 39 36 39 39 39 41 42 40 35 33 33 33 34 34 35 39 41 42 44
43 42 41 39 40 40 40 39 39 38 35 35 36 37 37 38 33 33 32 31 33 33 32 37 39 40 42
42 42 41 40 40 39 38 37 36 36 34 33 32 33 34 36 32 31 31 31 32 33 32 34 36 37 39
43 42 40 40 39 37 37 36 36 34 34 34 30 30 29 29 32 31 30 30 32 33 32 33 35 38 38
43 41 41 40 39 38 37 35 31 32 33 32 26 27 25 24 28 28 30 30 32 34 35 36 36 36 37
41 41 41 40 39 37 35 35 32 29 29 28 23 23 23 22 24 29 31 30 32 32 32 33 34 33 33
37 39 40 40 40 37 35 35 32 30 28 26 21 21 18 22 26 29 31 33 33 34 33 32 32 30 29
33 34 35 36 38 35 34 34 31 30 26 24 20 21 18 21 25 28 29 31 31 31 31 29 30 30 28
30 31 32 32 31 31 31 30 30 30 27 24 20 21 23 21 20 24 26 26 27 27 25 28 30 29 29
27 28 29 29 26 27 28 28 27 28 27 25 22 19 22 19 21 22 23 24 25 25 25 25 25 25 22
27 26 27 25 25 25 26 26 26 26 27 27 24 23 21 22 20 20 21 19 24 24 25 26 26 26 25
27 24 26 25 24 23 23 23 20 24 24 25 25 24 23 23 23 21 22 23 23 24 24 23 24 25 24
27 25 23 25 24 23 21 21 17 19 21 23 24 22 20 20 23 20 23 23 23 24 24 21 19 22 24
29 28 25 24 24 23 21 19 19 20 20 22 22 16 12 3 23 26 19 22 23 24 24 23 20 25 26

GFSFLT2_sfc_30mbdewp_099.txt.gz
Dewpoint
47 47 47 48 47 47 47 47 47 48 47 46 45 45 45 44 43 42 41 41 42 42 43 44 45 45 45
45 45 46 46 46 45 45 45 44 45 45 45 45 44 45 43 41 39 38 38 39 39 41 42 43 44 45
44 44 44 45 44 44 43 42 42 42 43 45 44 44 45 43 39 37 35 35 35 36 37 40 42 43 44
45 43 43 43 43 42 41 41 40 38 41 41 42 42 43 44 39 34 33 33 34 35 33 37 40 41 42
44 42 41 41 41 41 41 40 40 39 37 37 38 39 39 43 36 34 33 32 32 33 32 34 38 39 41
43 43 41 41 41 40 39 38 37 39 38 36 34 36 36 38 35 33 31 31 31 33 32 33 35 37 38
44 43 42 41 40 39 37 37 37 35 36 35 33 32 33 34 37 33 31 30 31 33 33 33 38 38 40
45 43 43 42 42 40 39 36 33 34 35 35 28 31 27 26 32 31 30 30 32 34 35 35 36 36 37
47 46 45 44 41 38 36 36 34 32 32 32 25 25 24 24 24 31 30 30 32 33 32 32 34 33 33
41 42 42 42 40 39 37 37 34 32 30 30 23 23 23 22 24 27 30 31 31 34 32 32 32 29 29
38 38 39 40 39 37 37 37 34 32 29 26 22 21 16 20 25 28 30 31 32 32 32 29 31 29 27
35 35 35 36 36 34 34 32 31 32 29 24 22 22 20 20 20 25 27 28 29 29 27 29 30 30 30
33 32 33 32 31 30 29 28 28 29 28 23 21 21 21 18 19 23 24 25 25 25 25 25 25 25 22
31 29 29 29 29 28 28 27 27 26 27 25 20 20 20 19 19 20 21 19 24 24 25 25 26 25 25
28 27 27 27 27 26 27 26 27 25 24 25 25 24 23 21 21 20 21 22 23 24 24 23 24 25 24
29 28 27 26 26 24 24 25 24 24 24 24 24 23 22 22 23 22 22 22 23 24 23 19 18 21 24
30 29 28 27 26 24 23 23 20 20 21 22 22 18 15 10 20 24 21 22 23 23 23 22 18 24 26

GFSFLT2_sfc_30mbdewp_105.txt.gz
Dewpoint
51 49 50 51 51 53 53 54 55 54 53 51 50 50 50 50 49 47 46 45 44 44 44 44 44 44 45
48 47 48 50 50 49 49 51 51 52 51 50 49 48 48 48 46 45 43 42 42 42 41 41 43 43 44
46 46 45 48 47 47 47 47 48 50 50 49 48 47 47 46 45 43 41 40 38 38 37 37 39 41 42
46 45 45 46 47 45 43 44 44 46 47 47 47 47 46 46 44 42 39 37 36 36 36 34 35 38 40
46 44 44 44 44 44 44 42 42 41 43 45 46 46 46 46 44 41 38 36 35 35 35 34 33 36 38
48 46 46 46 46 44 43 40 39 41 41 41 43 43 43 44 44 40 38 36 34 34 34 33 34 38 41
49 47 47 46 45 43 42 42 43 40 41 39 39 39 39 40 42 40 39 36 34 33 33 32 37 37 37
49 51 49 47 47 45 44 42 38 39 41 38 35 37 36 37 41 40 38 35 33 33 33 36 35 36 35
47 50 50 48 47 45 41 39 36 35 37 36 32 32 31 31 35 40 38 35 33 34 36 34 35 35 35
44 46 48 47 46 45 41 40 35 33 35 35 31 30 31 27 29 34 36 34 32 34 34 34 34 29 30
41 42 44 44 44 44 42 42 38 37 35 34 31 29 29 24 25 27 31 33 32 34 33 33 33 29 29
38 38 39 41 42 41 41 42 40 38 37 33 30 29 24 24 25 26 29 32 32 33 32 31 32 31 29
36 37 38 39 36 34 33 33 33 36 37 31 31 28 26 23 24 26 26 29 31 32 31 30 30 29 30
36 37 34 34 33 32 32 33 31 28 27 29 30 28 26 25 25 26 28 28 30 31 30 29 27 26 25
35 33 32 33 32 32 32 32 31 27 26 24 24 25 26 23 23 26 25 24 29 30 29 27 26 26 25
34 33 32 32 32 32 32 32 30 28 26 24 24 23 23 23 25 23 23 24 27 28 28 27 26 27 25
32 32 32 31 31 29 30 31 29 28 27 25 24 25 22 20 24 25 24 24 26 26 26 24 25 25 24

GFSFLT2_sfc_30mbdewp_108.txt.gz
Dewpoint
55 55 53 54 54 54 55 55 55 56 57 56 55 55 54 54 53 52 51 49 48 48 47 46 46 45 46
54 52 51 52 53 52 53 54 55 56 56 55 54 53 53 52 51 50 49 48 47 46 45 44 44 44 44
53 48 49 49 49 50 50 50 53 53 54 53 52 51 51 50 50 48 47 45 44 42 42 41 41 41 42
52 47 46 46 48 46 45 46 47 50 51 51 51 50 49 49 47 46 44 43 41 39 38 37 36 36 39
48 46 45 45 45 46 45 45 44 45 47 48 48 48 48 48 46 44 42 41 39 38 38 37 35 34 37
48 47 47 47 46 45 45 41 40 42 44 44 47 46 46 47 46 44 42 40 38 37 36 35 34 34 40
44 46 48 48 47 45 45 43 44 42 44 42 44 44 45 45 46 44 42 41 39 37 36 34 33 37 38
44 46 48 50 48 46 45 44 42 42 44 41 40 41 43 42 45 44 42 41 39 37 35 34 36 36 36
41 43 45 46 49 48 45 42 37 37 42 39 35 36 37 38 42 43 42 41 38 36 35 35 36 36 36
38 39 41 45 47 48 45 42 41 36 38 39 33 34 34 32 36 41 42 41 38 35 35 36 35 34 33
35 38 39 41 44 47 47 44 42 39 37 38 33 33 34 29 31 35 40 38 36 35 35 35 35 31 29
33 34 37 39 41 44 45 44 45 43 38 40 35 36 31 28 29 31 33 35 35 33 35 34 34 32 30
32 34 36 39 40 38 35 36 35 37 38 40 37 37 36 32 29 29 31 32 33 35 34 33 33 32 30
33 35 36 35 35 35 34 34 34 32 30 34 35 36 34 31 30 30 32 30 33 34 33 32 32 30 31
32 32 34 34 33 33 34 33 33 31 30 29 30 33 33 29 30 30 31 31 32 32 32 30 29 27 26
30 31 32 32 32 31 32 32 33 31 28 26 28 28 29 28 31 29 30 29 30 31 31 29 28 28 26
30 31 31 32 31 31 31 32 32 31 29 27 29 31 28 27 25 29 28 28 29 28 30 30 29 29 26

GFSFLT2_sfc_30mbdewp_111.txt.gz
Dewpoint
54 56 55 55 55 56 56 56 56 56 57 57 56 56 57 59 59 58 56 54 53 51 50 49 49 48 47
54 54 54 54 55 54 54 55 56 56 55 55 55 55 56 57 56 55 54 53 52 50 49 48 47 46 46
52 54 53 51 52 53 53 53 54 54 55 55 55 55 56 55 54 53 52 51 49 48 47 46 45 44 43
47 49 48 48 49 48 47 47 49 50 53 55 55 54 54 53 52 51 49 48 47 45 44 43 41 39 39
44 46 45 45 46 47 47 46 45 47 49 50 51 51 51 51 50 49 48 46 45 43 41 40 38 37 36
40 41 44 47 47 46 46 43 42 44 47 47 49 48 49 49 49 47 46 45 43 41 40 39 38 36 35
37 39 43 45 47 46 45 44 44 44 46 45 46 46 47 47 48 46 45 44 42 40 39 38 36 35 36
33 35 39 41 42 43 46 46 44 43 46 44 43 45 45 46 48 46 45 43 42 41 39 37 36 35 37
31 33 35 38 39 42 41 43 42 40 43 44 39 41 41 42 46 46 45 44 42 41 39 37 35 37 36
28 30 32 34 38 39 42 41 43 39 39 41 36 36 36 36 40 45 45 44 42 41 39 37 36 36 35
26 28 30 32 34 38 41 41 42 42 39 42 36 36 37 32 36 41 43 43 42 40 38 37 37 36 34
27 29 30 32 32 34 37 41 42 44 41 42 37 39 36 30 31 35 40 41 40 38 36 37 36 35 32
26 27 29 31 33 35 37 37 37 39 41 41 40 38 38 35 30 32 35 37 38 36 36 36 35 34 31
26 28 28 29 31 34 35 36 34 36 33 38 40 38 38 36 34 32 36 32 35 35 35 34 34 33 32
24 25 26 28 29 33 34 34 32 34 31 31 35 37 36 34 33 33 34 32 34 34 33 32 32 32 32
25 26 27 29 29 31 32 32 31 32 32 29 31 31 31 31 33 33 33 32 33 33 33 31 30 29 29
25 25 27 29 30 30 31 31 30 31 32 29 31 32 29 29 28 34 32 32 32 32 32 30 29 29 27

GFSFLT2_sfc_30mbdewp_114.txt.gz
Dewpoint
50 56 57 57 57 58 58 58 57 57 58 58 58 58 57 57 57 58 59 60 60 58 56 54 52 51 50
46 48 53 56 56 56 56 56 56 56 56 56 56 56 56 56 56 57 59 59 57 56 55 53 51 50 49
43 46 49 51 52 53 54 54 55 55 56 56 56 56 56 55 55 57 58 56 55 54 53 52 50 49 48
40 43 46 48 48 48 49 49 51 51 52 53 54 55 55 55 55 56 56 54 53 52 51 49 48 47 46
36 37 39 42 44 47 46 48 47 47 48 50 52 53 54 54 55 54 52 52 51 50 48 47 45 43 42
33 34 36 40 42 42 43 44 43 45 46 47 50 50 52 53 52 51 51 50 49 48 47 45 42 40 39
31 31 32 33 36 37 38 40 42 45 45 45 47 47 49 50 50 50 49 49 47 46 45 43 41 40 38
29 30 31 32 34 35 37 37 40 43 45 43 44 45 46 48 49 49 48 47 46 44 43 42 40 39 37
26 27 28 29 30 32 34 35 35 39 43 43 41 43 42 44 47 48 47 46 45 44 43 41 40 37 37
26 26 27 27 30 32 34 35 35 35 39 41 39 39 40 38 42 47 46 46 45 44 42 41 39 37 36
25 26 27 29 31 33 33 31 32 32 38 40 37 37 38 36 36 42 45 45 44 43 43 41 39 37 35
26 26 27 28 29 30 31 32 34 35 37 40 38 39 37 35 36 36 42 44 43 42 41 40 39 38 36
24 25 26 27 28 28 29 30 31 35 37 38 38 39 40 39 36 35 38 40 41 40 39 39 38 38 35
24 25 25 24 26 27 27 30 30 31 34 36 37 38 38 39 38 34 38 36 39 39 38 38 37 36 34
25 25 25 24 24 26 27 29 28 29 32 33 34 36 38 39 36 36 36 35 37 37 36 35 35 34 33
25 25 25 24 24 25 29 28 28 27 30 33 32 31 32 33 36 35 36 35 36 36 36 33 32 33 33
23 25 23 24 24 23 25 27 28 29 29 32 31 31 30 29 32 34 35 34 34 33 34 33 31 31 33

GFSFLT2_sfc_30mbdewp_117.txt.gz
Dewpoint
45 47 48 47 51 55 59 59 59 58 58 58 58 59 59 59 59 59 59 59 59 60 61 60 58 56 53
40 42 44 48 49 50 53 57 58 58 57 58 57 58 58 58 58 57 57 58 58 60 60 59 57 55 54
37 40 43 45 47 49 49 50 53 54 55 56 57 57 57 57 56 56 56 56 56 58 59 58 57 55 53
35 36 37 39 42 44 43 46 47 49 51 52 54 55 55 56 56 55 55 55 56 57 57 56 54 53 52
32 33 33 36 35 37 38 39 42 47 47 48 50 51 52 53 53 54 54 54 55 56 55 54 53 52 50
30 30 31 31 33 34 35 35 36 44 43 44 48 48 50 52 53 53 53 53 54 55 53 52 51 50 48
27 27 28 29 31 31 31 33 33 36 37 38 43 45 49 50 51 52 53 53 52 51 50 49 48 47 45
26 27 29 29 29 29 30 31 33 34 36 37 42 43 46 47 49 50 50 50 50 49 48 48 46 44 43
29 29 27 27 28 29 29 30 28 29 34 36 39 41 42 44 46 49 49 49 49 48 47 46 44 44 43
28 25 27 27 28 30 31 30 30 27 33 34 37 38 38 40 41 46 48 48 48 47 46 45 43 40 38
23 24 26 27 29 29 31 30 27 28 31 32 34 34 36 37 37 40 45 46 46 46 45 44 42 39 36
23 24 24 25 26 27 28 28 28 28 29 31 31 33 33 33 35 36 40 45 45 43 44 44 42 39 38
23 24 25 25 26 26 26 27 28 29 29 30 32 32 33 33 34 35 38 40 43 42 42 42 41 40 38
24 24 25 25 25 24 24 25 26 27 28 30 32 33 31 32 34 35 36 38 40 41 41 41 40 39 38
24 24 25 24 25 25 24 24 24 26 26 26 29 33 34 34 33 35 37 38 39 40 38 37 38 39 38
24 24 22 23 24 23 24 22 22 23 24 27 28 30 31 32 35 33 36 37 37 39 38 36 35 37 37
23 22 21 23 23 22 21 22 22 23 24 26 30 29 27 25 31 36 34 36 36 36 36 36 34 34 35

GFSFLT2_sfc_30mbdewp_120.txt.gz
Dewpoint
39 41 41 42 46 48 49 51 52 56 57 58 58 58 58 58 58 59 60 60 59 58 58 58 59 61 60
35 37 38 42 43 41 47 48 49 50 51 52 55 58 58 58 58 58 59 59 59 59 59 58 59 60 60
34 36 37 38 39 42 39 42 41 44 47 50 51 53 55 56 57 57 57 58 58 58 58 58 59 59 59
33 33 34 35 34 33 32 34 36 37 47 48 49 50 51 52 54 55 55 55 56 56 56 57 58 59 58
30 30 30 30 30 31 31 32 32 42 38 40 42 44 47 50 52 52 53 53 54 54 55 56 56 57 57
27 27 27 28 29 30 30 29 27 35 31 31 33 37 43 46 49 50 51 52 53 53 53 54 55 56 55
26 26 26 27 29 28 28 28 28 30 32 31 33 36 41 45 47 48 49 50 51 52 52 53 54 54 54
28 28 28 30 29 28 29 29 29 30 32 29 32 33 36 41 43 46 48 49 50 51 51 52 53 52 51
30 31 30 26 28 28 28 27 26 27 29 30 33 32 35 37 40 43 46 48 50 50 51 50 49 49 48
29 30 25 26 27 28 29 27 25 24 29 27 28 31 31 36 37 39 41 47 49 49 49 48 48 46 45
28 28 24 25 25 26 27 27 25 24 26 27 26 27 28 28 33 34 38 41 45 48 48 47 46 45 42
26 24 23 23 24 25 26 27 27 26 26 28 27 26 25 25 27 30 32 36 41 44 45 46 46 44 42
25 24 24 24 25 25 26 26 26 26 27 28 29 27 27 27 27 28 30 33 38 41 42 43 43 42 40
26 26 25 24 24 25 24 25 24 23 24 27 28 29 29 29 31 29 29 29 34 40 41 41 42 42 40
26 23 23 25 24 23 24 23 22 22 21 22 26 27 28 29 28 31 31 30 31 36 39 39 40 40 40
23 23 23 23 21 22 23 22 21 20 20 21 22 25 25 28 31 30 31 31 31 33 38 37 37 39 40
21 21 20 20 21 21 21 21 20 19 20 22 23 24 22 22 24 33 31 30 30 31 35 37 37 37 38

GFSFLT2_sfc_30mbdewp_123.txt.gz
Dewpoint
37 37 36 38 39 40 43 44 47 44 44 46 51 52 54 57 58 59 58 59 59 59 61 61 61 62 61
34 35 36 37 38 38 37 38 39 37 36 48 50 51 51 52 55 57 58 58 58 59 60 60 60 60 60
32 34 34 35 32 33 32 33 33 32 31 44 44 44 45 49 51 52 55 57 58 58 59 59 60 60 60
30 31 31 31 30 29 29 30 30 29 38 33 32 33 35 43 47 49 51 52 54 57 58 58 59 59 59
26 27 27 27 28 28 29 29 28 35 31 30 33 34 35 37 41 45 48 49 51 52 55 56 57 57 58
26 26 26 26 28 29 28 27 25 31 29 30 33 32 35 39 41 43 45 47 48 50 51 53 54 55 56
26 26 26 27 28 28 27 28 27 29 29 28 30 31 33 36 37 40 41 41 44 47 49 50 51 52 53
27 28 29 29 29 28 28 29 28 27 30 25 27 31 30 31 32 41 42 44 45 47 48 49 50 51 51
30 30 31 31 27 27 24 26 23 23 25 26 25 23 24 27 37 34 36 36 40 43 47 49 50 50 50
31 30 30 27 27 26 26 25 25 22 24 23 23 26 24 27 29 29 33 32 36 37 40 48 49 49 49
30 29 28 26 25 25 26 25 24 24 25 25 24 24 24 25 26 26 29 32 32 34 35 42 48 47 45
25 24 24 24 24 24 25 25 26 26 27 26 24 24 24 24 23 24 26 28 31 34 37 41 47 47 46
24 25 25 25 25 24 25 25 25 26 26 26 26 26 26 26 25 26 26 27 28 30 34 36 39 43 42
26 27 27 24 23 24 24 23 23 23 23 24 25 25 24 26 27 26 27 27 28 28 30 32 37 42 42
24 23 22 21 22 24 23 22 21 20 20 21 22 23 25 26 24 25 26 26 28 30 30 30 34 39 41
22 22 21 21 21 21 21 21 20 19 20 20 21 22 21 23 26 25 25 26 28 29 29 29 29 35 41
21 20 19 18 19 19 20 19 18 17 19 19 19 20 18 18 20 23 27 27 28 29 29 29 30 32 38

GFSFLT2_sfc_30mbdewp_126.txt.gz
Dewpoint
35 35 35 35 37 33 36 35 36 34 34 34 48 47 46 48 51 53 55 58 59 60 60 60 60 59 60
33 31 32 35 31 32 31 32 33 31 31 41 40 38 36 38 46 49 51 51 54 58 58 59 60 60 60
29 31 32 32 29 30 29 31 30 29 35 32 31 33 34 35 36 41 45 47 49 51 55 58 58 59 60
27 27 28 28 29 28 27 28 28 29 31 29 31 33 33 35 38 42 43 45 46 48 50 52 56 58 59
25 26 25 25 26 28 28 27 26 31 28 28 30 32 33 34 37 37 39 39 41 43 46 48 51 55 58
26 25 25 26 27 28 27 26 24 29 28 27 30 29 31 34 33 30 35 41 41 43 44 46 48 51 53
27 26 26 27 28 28 26 27 26 26 27 24 26 28 30 24 25 29 41 39 38 41 44 46 48 49 50
28 28 29 29 30 29 27 27 27 26 26 23 27 23 23 26 28 36 32 32 33 36 37 41 43 47 49
30 32 33 32 31 28 24 23 22 22 25 24 22 23 24 25 32 28 28 28 31 33 34 34 38 43 48
31 31 30 29 30 28 25 23 23 21 23 23 23 23 21 24 25 25 26 27 28 28 30 36 40 42 47
26 27 26 26 26 26 25 24 23 23 23 24 24 23 22 21 23 25 25 27 27 28 30 31 34 37 42
24 23 23 24 25 25 24 25 25 25 25 26 24 23 22 20 20 23 25 27 27 28 29 32 32 36 41
24 24 25 26 26 26 24 24 25 25 24 25 25 24 24 20 21 21 23 25 27 28 30 28 29 32 36
24 25 26 25 23 23 22 23 23 22 22 24 24 23 22 22 21 23 24 22 25 26 28 29 31 32 36
23 22 22 21 21 21 22 22 20 18 18 20 22 22 22 22 21 20 21 23 24 26 27 27 29 30 33
21 21 21 20 19 19 19 19 19 19 18 18 18 19 19 19 22 21 22 24 25 25 26 28 28 28 30
21 20 19 18 18 17 17 18 18 18 17 18 18 18 15 14 16 19 21 22 24 26 27 27 28 28 30